When you browse on this site, cookies collect data to enhance your experience and personalize the content and advertising you see.
Visit our Privacy Policy to learn more. By continuing to use the site, you agree to this use of cookies and data.
  • en France
  • Liste des pays
  • À 7 jours
  • Température de l'eau
  • Carte météo
  • Widgets météo
  • user-avatar
    Se connecter

    Météo par heure à Prince George

    Ce jour, 5 Avril, Dimanche

    Heure Température Précipitation Vent Pression Humidité
    00:00 -9°C° 0 mm 1 m/s 696 mmHg 91%
    01:00 -10°C° 0 mm 1 m/s 696 mmHg 91%
    02:00 -10°C° 0 mm 1 m/s 696 mmHg 92%
    03:00 -11°C° 0 mm 1 m/s 696 mmHg 93%
    04:00 -12°C° 0 mm 1 m/s 696 mmHg 94%
    05:00 -12°C° 0 mm 1 m/s 696 mmHg 93%
    06:00 -11°C° 0 mm 1 m/s 696 mmHg 93%
    07:00 -11°C° 0 mm 0 m/s 696 mmHg 93%
    08:00 -8°C° 0 mm 1 m/s 696 mmHg 88%
    09:00 -6°C° 0 mm 1 m/s 696 mmHg 84%
    10:00 -2°C° 0 mm 1 m/s 696 mmHg 80%
    11:00 -1°C° 0 mm 1 m/s 695 mmHg 78%
    12:00 0°C° 0 mm 1 m/s 695 mmHg 76%
    13:00 +1°C° 0 mm 1 m/s 695 mmHg 75%
    14:00 +1°C° 0.1 mm 1 m/s 695 mmHg 73%
    15:00 +1°C° 0.1 mm 1 m/s 695 mmHg 72%
    16:00 +1°C° 0.1 mm 1 m/s 694 mmHg 71%
    17:00 -1°C° 0 mm 1 m/s 694 mmHg 76%
    18:00 -4°C° 0 mm 0 m/s 694 mmHg 81%
    19:00 -6°C° 0 mm 0 m/s 694 mmHg 85%
    20:00 -7°C° 0 mm 0 m/s 694 mmHg 87%
    21:00 -7°C° 0 mm 1 m/s 694 mmHg 88%
    22:00 -8°C° 0 mm 1 m/s 695 mmHg 90%
    23:00 -8°C° 0 mm 1 m/s 694 mmHg 90%

    Demain, 6 Avril, Lundi

    Heure Température Précipitation Vent Pression Humidité
    00:00 -8°C° 0 mm 1 m/s 694 mmHg 91%
    01:00 -8°C° 0 mm 1 m/s 694 mmHg 92%
    02:00 -8°C° 0 mm 1 m/s 694 mmHg 92%
    03:00 -9°C° 0 mm 1 m/s 693 mmHg 92%
    04:00 -9°C° 0 mm 1 m/s 693 mmHg 93%
    05:00 -8°C° 0 mm 1 m/s 693 mmHg 91%
    06:00 -8°C° 0 mm 2 m/s 693 mmHg 89%
    07:00 -7°C° 0 mm 2 m/s 693 mmHg 88%
    08:00 -6°C° 0 mm 3 m/s 692 mmHg 86%
    09:00 -4°C° 0 mm 3 m/s 692 mmHg 84%
    10:00 -2°C° 0 mm 4 m/s 692 mmHg 82%
    11:00 -1°C° 0 mm 4 m/s 691 mmHg 81%
    12:00 +1°C° 0 mm 4 m/s 691 mmHg 81%
    13:00 +3°C° 0 mm 4 m/s 691 mmHg 80%
    14:00 +3°C° 0.2 mm 4 m/s 691 mmHg 78%
    15:00 +4°C° 0.2 mm 4 m/s 691 mmHg 76%
    16:00 +4°C° 0.2 mm 4 m/s 691 mmHg 74%
    17:00 +3°C° 0.1 mm 4 m/s 692 mmHg 75%
    18:00 0°C° 0.1 mm 4 m/s 692 mmHg 76%
    19:00 -1°C° 0.1 mm 3 m/s 693 mmHg 77%
    20:00 -2°C° 0 mm 3 m/s 693 mmHg 78%
    21:00 -4°C° 0 mm 3 m/s 694 mmHg 80%
    22:00 -5°C° 0 mm 3 m/s 694 mmHg 81%
    23:00 -6°C° 0 mm 3 m/s 695 mmHg 82%

    Après-demain, 7 Avril, Mardi

    Heure Température Précipitation Vent Pression Humidité
    00:00 -5°C° 0 mm 2 m/s 696 mmHg 83%
    01:00 -6°C° 0 mm 2 m/s 696 mmHg 84%
    02:00 -6°C° 0 mm 2 m/s 697 mmHg 83%
    03:00 -7°C° 0 mm 3 m/s 697 mmHg 82%
    04:00 -7°C° 0 mm 3 m/s 698 mmHg 81%
    05:00 -8°C° 0 mm 4 m/s 699 mmHg 78%
    06:00 -7°C° 0 mm 4 m/s 700 mmHg 75%
    07:00 -5°C° 0 mm 4 m/s 701 mmHg 72%
    08:00 -4°C° 0 mm 4 m/s 701 mmHg 67%
    09:00 -4°C° 0 mm 5 m/s 701 mmHg 61%
    10:00 -2°C° 0 mm 5 m/s 702 mmHg 56%
    11:00 -1°C° 0.1 mm 5 m/s 702 mmHg 55%
    12:00 -1°C° 0.1 mm 4 m/s 703 mmHg 55%
    13:00 0°C° 0.1 mm 4 m/s 703 mmHg 54%
    14:00 0°C° 0 mm 4 m/s 703 mmHg 54%
    15:00 +1°C° 0 mm 3 m/s 703 mmHg 55%
    16:00 +1°C° 0 mm 3 m/s 703 mmHg 56%
    17:00 +1°C° 0 mm 2 m/s 704 mmHg 63%
    18:00 0°C° 0 mm 1 m/s 704 mmHg 70%
    19:00 -2°C° 0 mm 0 m/s 705 mmHg 77%
    20:00 -2°C° 0 mm 1 m/s 705 mmHg 78%
    21:00 -2°C° 0 mm 1 m/s 705 mmHg 80%
    22:00 -2°C° 0 mm 1 m/s 706 mmHg 81%
    23:00 -3°C° 0 mm 1 m/s 706 mmHg 82%

    8 Avril, Mercredi

    Heure Température Précipitation Vent Pression Humidité
    00:00 -3°C° 0 mm 1 m/s 706 mmHg 84%
    01:00 -3°C° 0 mm 1 m/s 706 mmHg 85%
    02:00 -4°C° 0 mm 1 m/s 706 mmHg 86%
    03:00 -4°C° 0 mm 1 m/s 706 mmHg 86%
    04:00 -4°C° 0 mm 1 m/s 707 mmHg 87%
    05:00 -3°C° 0 mm 1 m/s 707 mmHg 85%
    06:00 -3°C° 0 mm 1 m/s 707 mmHg 83%
    07:00 -2°C° 0 mm 1 m/s 707 mmHg 81%
    08:00 -1°C° 0 mm 1 m/s 707 mmHg 77%
    09:00 +1°C° 0 mm 1 m/s 706 mmHg 73%
    10:00 +2°C° 0 mm 1 m/s 706 mmHg 70%
    11:00 +2°C° 0 mm 2 m/s 705 mmHg 69%
    12:00 +3°C° 0 mm 2 m/s 705 mmHg 68%
    13:00 +3°C° 0 mm 3 m/s 705 mmHg 67%
    14:00 +4°C° 0 mm 3 m/s 704 mmHg 67%
    15:00 +4°C° 0 mm 3 m/s 703 mmHg 67%
    16:00 +5°C° 0 mm 3 m/s 703 mmHg 67%
    17:00 +4°C° 0 mm 3 m/s 702 mmHg 72%
    18:00 +3°C° 0 mm 3 m/s 702 mmHg 77%
    19:00 +1°C° 0 mm 3 m/s 701 mmHg 82%
    20:00 +1°C° 0 mm 3 m/s 701 mmHg 83%
    21:00 +1°C° 0 mm 2 m/s 701 mmHg 83%
    22:00 +1°C° 0 mm 2 m/s 701 mmHg 84%
    23:00 +1°C° 0 mm 2 m/s 701 mmHg 85%

    9 Avril, Jeudi

    Heure Température Précipitation Vent Pression Humidité
    00:00 +1°C° 0 mm 2 m/s 701 mmHg 86%
    01:00 +1°C° 0 mm 2 m/s 701 mmHg 87%
    02:00 +1°C° 0 mm 2 m/s 701 mmHg 88%
    03:00 +1°C° 0 mm 2 m/s 702 mmHg 88%
    04:00 -1°C° 0 mm 2 m/s 702 mmHg 89%
    05:00 +1°C° 0 mm 2 m/s 702 mmHg 88%
    06:00 +1°C° 0 mm 2 m/s 702 mmHg 87%
    07:00 +1°C° 0 mm 2 m/s 702 mmHg 86%
    08:00 +3°C° 0 mm 2 m/s 702 mmHg 83%
    09:00 +4°C° 0 mm 2 m/s 702 mmHg 79%
    10:00 +5°C° 0 mm 2 m/s 703 mmHg 75%
    11:00 +6°C° 0 mm 2 m/s 703 mmHg 72%
    12:00 +7°C° 0 mm 2 m/s 702 mmHg 68%
    13:00 +8°C° 0 mm 2 m/s 702 mmHg 64%
    14:00 +9°C° 0 mm 1 m/s 702 mmHg 65%
    15:00 +9°C° 0 mm 1 m/s 702 mmHg 67%
    16:00 +9°C° 0 mm 1 m/s 702 mmHg 68%
    17:00 +8°C° 0.2 mm 1 m/s 702 mmHg 76%
    18:00 +5°C° 0.2 mm 0 m/s 702 mmHg 85%
    19:00 +3°C° 0.2 mm 0 m/s 702 mmHg 93%
    20:00 +3°C° 0.5 mm 0 m/s 702 mmHg 95%
    21:00 +4°C° 0.5 mm 1 m/s 702 mmHg 96%
    22:00 +4°C° 0.5 mm 1 m/s 702 mmHg 98%
    23:00 +3°C° 0.5 mm 1 m/s 702 mmHg 98%

    10 Avril, Vendredi

    Heure Température Précipitation Vent Pression Humidité
    00:00 +3°C° 0.5 mm 1 m/s 702 mmHg 98%
    01:00 +3°C° 0.5 mm 1 m/s 702 mmHg 98%
    02:00 +3°C° 0.1 mm 1 m/s 702 mmHg 98%
    03:00 +3°C° 0.1 mm 1 m/s 702 mmHg 98%
    04:00 +2°C° 0.1 mm 1 m/s 702 mmHg 98%
    05:00 +2°C° 0.2 mm 1 m/s 702 mmHg 98%
    06:00 +2°C° 0.2 mm 1 m/s 702 mmHg 98%
    07:00 +2°C° 0.2 mm 1 m/s 702 mmHg 98%
    08:00 +2°C° 0.4 mm 1 m/s 702 mmHg 97%
    09:00 +2°C° 0.4 mm 1 m/s 703 mmHg 97%
    10:00 +3°C° 0.4 mm 1 m/s 703 mmHg 97%
    11:00 +3°C° 0.4 mm 1 m/s 703 mmHg 96%
    12:00 +3°C° 0.4 mm 1 m/s 703 mmHg 96%
    13:00 +2°C° 0.4 mm 0 m/s 703 mmHg 96%
    14:00 +3°C° 0.1 mm 1 m/s 703 mmHg 96%
    15:00 +3°C° 0.1 mm 1 m/s 703 mmHg 96%
    16:00 +3°C° 0.1 mm 1 m/s 703 mmHg 96%
    17:00 +3°C° 0.2 mm 1 m/s 703 mmHg 97%
    18:00 +3°C° 0.2 mm 1 m/s 703 mmHg 98%
    19:00 +2°C° 0.2 mm 1 m/s 703 mmHg 99%
    20:00 +2°C° 0.6 mm 1 m/s 703 mmHg 99%
    21:00 +2°C° 0.6 mm 1 m/s 703 mmHg 99%
    22:00 +2°C° 0.6 mm 1 m/s 704 mmHg 99%
    23:00 -1°C° 0.6 mm 2 m/s 704 mmHg 98%
    Voir plus